Location: R�serve Fauniques des Laurentides
(47.3100°N, 71.1900°W)
Time: 04:50:52
(UTC-04:00)

Amateur Radio Satellites - All Passes

Search period start: 25 September 2016 04:20
Search period end: 26 September 2016 04:20
Location: R�serve Fauniques des Laurentides, 47.3100°N, 71.1900°W

Satellite Date Start Highest point End Downlink Frequencies (MHz)
Time Altitude Azimuth
BEESAT 2 25 Sep 04:23:17 04:26:14 19° 324° (NW) 04:29:12 435.950
CUBESAT XI-V 25 Sep 04:26:15 04:30:41 43° 69° (ENE) 04:35:10 437.345
AIST 2 25 Sep 04:37:45 04:41:37 42° 120° (ESE) 04:45:34 435.215
AIST 1 25 Sep 04:44:40 04:47:29 17° 85° (E) 04:50:19
RS-15 25 Sep 04:46:09 04:58:35 73° 47° (NE) 05:10:49 29.354- 29.394
STARS 25 Sep 04:48:39 04:52:54 48° 260° (W) 04:57:10 437.465
Cosmos 2491 25 Sep 04:52:26 04:57:27 17° 287° (WNW) 05:02:28 435.465 / 435.565
MOZHAYETS 4 25 Sep 04:54:34 04:57:37 17° 270° (W) 05:00:40
Cosmos 2504 25 Sep 05:01:30 05:08:57 78° 280° (W) 05:16:10 435.465 / 435.565
ISS 25 Sep 05:03:33 05:04:43 11° 227° (SW) 05:05:53 145.825
CUSAT 1 25 Sep 05:03:34 05:10:12 28° 59° (ENE) 05:16:17 437.405
AO-7 25 Sep 05:08:11 05:16:32 83° 291° (WNW) 05:24:49 29.400- 29.500
HORYU 2 25 Sep 05:14:11 05:17:52 25° 94° (E) 05:21:32 437.375
NOAA 15 25 Sep 05:25:58 05:26:31 10° 85° (E) 05:27:04 137.62
ITAMSAT 1 25 Sep 05:32:58 05:36:37 19° 302° (WNW) 05:40:14 435.822/435.867
PCSat 25 Sep 05:36:19 05:41:43 77° 121° (ESE) 05:47:10 145.827
BRITE-PL 25 Sep 05:37:10 05:41:24 27° 92° (E) 05:45:20 437.365/2234.400
GOMX 1 25 Sep 05:44:55 05:46:55 13° 86° (E) 05:48:51 467.674
STRAND 1 25 Sep 05:47:42 05:51:23 20° 59° (ENE) 05:55:05 437.568
AO-85 25 Sep 05:57:03 06:01:15 50° 47° (NE) 06:05:09 145.980
YUBILEINY 25 Sep 05:58:18 06:04:34 21° 304° (WNW) 06:10:52 435.215
DANDE 25 Sep 06:01:25 06:08:42 34° 64° (ENE) 06:16:00 436.750
CUBESAT XI-V 25 Sep 06:04:27 06:08:14 24° 267° (W) 06:12:04 437.345
LilacSat-2 25 Sep 06:11:57 06:14:46 19° 93° (E) 06:17:33 437.200
AIST 2 25 Sep 06:16:39 06:20:15 28° 320° (NW) 06:23:53 435.215
AIST 1 25 Sep 06:20:22 06:24:40 51° 283° (WNW) 06:28:59
DOVE 4 25 Sep 06:22:56 06:24:44 12° 87° (E) 06:26:33 437.250
CUSAT 1 25 Sep 06:45:07 06:53:10 79° 262° (W) 07:00:10 437.405
HORYU 2 25 Sep 06:50:24 06:54:32 38° 292° (WNW) 06:58:39 437.375
Cosmos 2504 25 Sep 06:59:17 07:03:39 16° 303° (WNW) 07:08:00 435.465 / 435.565
RS-15 25 Sep 06:59:18 07:10:25 42° 252° (WSW) 07:21:21 29.354- 29.394
NOAA 15 25 Sep 07:01:54 07:07:14 72° 103° (ESE) 07:12:31 137.62
AO-7 25 Sep 07:02:00 07:08:13 24° 313° (NW) 07:14:25 29.400- 29.500
Cubesat XI-IV 25 Sep 07:06:19 07:11:40 65° 102° (ESE) 07:16:59 437.490
CUTE-I 25 Sep 07:07:32 07:12:53 67° 102° (ESE) 07:18:12 437.470
BRITE-PL 25 Sep 07:15:20 07:20:03 40° 293° (WNW) 07:24:24 437.365/2234.400
PRISM 25 Sep 07:19:53 07:22:04 14° 59° (ENE) 07:24:15 437.425
GOMX 1 25 Sep 07:21:05 07:25:41 72° 286° (WNW) 07:29:57 467.674
PCSat 25 Sep 07:21:17 07:25:42 25° 322° (NW) 07:30:10 145.827
NOAA 18 25 Sep 07:21:21 07:26:49 69° 103° (ESE) 07:32:16 137.9125
STRAND 1 25 Sep 07:25:03 07:30:06 65° 258° (WSW) 07:35:12 437.568
CUTE 1.7 + AOD 2 25 Sep 07:33:18 07:35:38 14° 89° (E) 07:37:57 437.475
CANX-2 25 Sep 07:33:32 07:36:18 16° 90° (E) 07:39:02 2200.000
AO-85 25 Sep 07:38:15 07:41:17 20° 248° (WSW) 07:44:11 145.980
HO-68 25 Sep 07:39:43 07:45:28 25° 92° (E) 07:51:11 435.675
SEEDS 25 Sep 07:41:19 07:42:59 12° 88° (E) 07:44:38 437.485
DANDE 25 Sep 07:43:53 07:52:06 71° 264° (W) 08:00:12 436.750
LilacSat-2 25 Sep 07:45:39 07:49:11 37° 290° (WNW) 07:52:44 437.200
O/OREOS (USA 219) 25 Sep 07:51:18 07:55:39 47° 109° (ESE) 08:00:05 437.305
CINEMA 3 25 Sep 07:56:48 08:00:31 31° 96° (E) 08:04:16 145.822/145.860
DOVE 4 25 Sep 07:58:45 08:03:02 67° 286° (WNW) 08:07:09 437.250
AAUSAT CUBESAT 2 25 Sep 08:12:43 08:14:59 14° 89° (E) 08:17:13 437.432
GONETS M04 25 Sep 08:19:54 08:27:56 41° 86° (E) 08:35:59
Cosmos 2499 25 Sep 08:22:56 08:29:00 31° 85° (E) 08:35:01 435.465 / 435.565
CUSAT 1 25 Sep 08:28:54 08:33:49 18° 283° (WNW) 08:38:26 437.405
BEESAT 3 25 Sep 08:33:16 08:35:39 15° 31° (NNE) 08:38:01 437.485
NOAA 15 25 Sep 08:42:44 08:46:28 20° 302° (WNW) 08:50:11 137.62
Cubesat XI-IV 25 Sep 08:47:17 08:51:16 22° 301° (WNW) 08:55:16 437.490
CUTE-I 25 Sep 08:48:31 08:52:27 21° 301° (WNW) 08:56:22 437.470
ZACube-1 25 Sep 08:51:22 08:53:59 16° 90° (E) 08:56:37 437.345
COMPASS 1 25 Sep 08:52:26 08:56:31 44° 98° (E) 09:00:33 437.405
PRISM 25 Sep 08:52:40 08:56:50 72° 258° (WSW) 09:01:02 437.425
Oscar 11 25 Sep 08:55:22 08:58:13 17° 90° (E) 09:01:03 145.826/435.025
ANTELSAT 25 Sep 08:58:40 09:01:43 19° 63° (ENE) 09:04:46 437.575/2403.000
NOAA 18 25 Sep 09:02:57 09:06:58 21° 302° (WNW) 09:11:00 137.9125
CUTE 1.7 + AOD 2 25 Sep 09:07:38 09:11:54 64° 286° (WNW) 09:16:08 437.475
CANX-2 25 Sep 09:08:16 09:12:30 55° 288° (WNW) 09:16:42 2200.000
PCSat 25 Sep 09:10:42 09:11:11 10° 347° (NNW) 09:11:40 145.827
SEEDS 25 Sep 09:14:55 09:19:12 75° 285° (WNW) 09:23:26 437.485
TIGRISAT 25 Sep 09:19:23 09:23:01 28° 66° (ENE) 09:26:41 435.000
BEESAT 2 25 Sep 09:21:55 09:24:56 20° 36° (NE) 09:27:57 435.950
CUBEBUG 2 25 Sep 09:25:11 09:29:26 76° 103° (ESE) 09:33:45 437.445
HO-68 25 Sep 09:26:41 09:33:50 71° 291° (WNW) 09:40:55 435.675
DANDE 25 Sep 09:28:39 09:33:34 17° 283° (WNW) 09:38:28 436.750
O/OREOS (USA 219) 25 Sep 09:31:34 09:35:19 24° 309° (NW) 09:39:05 437.305
CINEMA 3 25 Sep 09:34:07 09:37:36 26° 294° (WNW) 09:41:06 145.822/145.860
HUMSAT D 25 Sep 09:40:54 09:41:34 10° 87° (E) 09:42:14 437.325/437.525
FUNcube-1 25 Sep 09:46:06 09:50:17 51° 100° (E) 09:54:33 145.935
AAUSAT CUBESAT 2 25 Sep 09:46:42 09:50:51 62° 287° (WNW) 09:55:00 437.432
UWE-3 25 Sep 09:49:55 09:54:11 88° 293° (WNW) 09:58:33 435.000/436.395/437.385
UNISAT 6 25 Sep 09:58:14 10:02:30 73° 75° (ENE) 10:06:46 437.425
DELFI C3 25 Sep 09:58:26 10:02:00 29° 96° (E) 10:05:31 145.870
BEESAT 3 25 Sep 10:09:59 10:13:59 76° 52° (NE) 10:17:57 437.485
Cosmos 2499 25 Sep 10:14:49 10:21:46 53° 285° (WNW) 10:28:41 435.465 / 435.565
QB50P1 25 Sep 10:15:25 10:18:17 18° 62° (ENE) 10:21:09 145.935-145.965
GONETS M04 25 Sep 10:16:00 10:24:33 52° 287° (WNW) 10:33:12
DUCHIFAT 1 25 Sep 10:17:00 10:19:38 17° 61° (ENE) 10:22:17 145.980
JAS-2 25 Sep 10:17:17 10:22:35 26° 55° (NE) 10:28:20 435.910
ZACube-1 25 Sep 10:26:25 10:30:37 58° 288° (WNW) 10:34:54 437.345
POPSAT HIP 1 25 Sep 10:28:05 10:31:25 23° 65° (ENE) 10:34:44 437.405
COMPASS 1 25 Sep 10:28:39 10:31:47 20° 296° (WNW) 10:34:54 437.405
Oscar 11 25 Sep 10:30:25 10:34:42 55° 288° (WNW) 10:38:57 145.826/435.025
BUGSAT 1 25 Sep 10:33:54 10:34:53 11° 58° (ENE) 10:35:53 437.445
ANTELSAT 25 Sep 10:33:59 10:38:08 48° 261° (W) 10:42:17 437.575/2403.000
NANOSAT C BR1 25 Sep 10:46:03 10:49:48 32° 68° (ENE) 10:53:34 145.865
TIGRISAT 25 Sep 10:55:52 10:59:40 31° 264° (W) 11:03:28 435.000
PCSat 25 Sep 10:56:18 10:57:21 10° 14° (NNE) 10:58:23 145.827
BEESAT 2 25 Sep 10:59:10 11:03:10 70° 237° (WSW) 11:07:10 435.950
CUBEBUG 2 25 Sep 11:03:31 11:05:31 13° 300° (WNW) 11:07:33 437.445
ESTCUBE 1 25 Sep 11:05:59 11:08:34 15° 89° (E) 11:11:09 437.505/2401.250
QB50P2 25 Sep 11:06:05 11:10:13 58° 72° (ENE) 11:14:22 145.880/145.840
POLYITAN 1 25 Sep 11:08:20 11:12:28 59° 73° (ENE) 11:16:36 437.675
HUMSAT D 25 Sep 11:13:31 11:17:46 85° 282° (WNW) 11:22:02 437.325/437.525
HO-68 25 Sep 11:15:54 11:20:22 18° 312° (NW) 11:24:52 435.675
AIST 2 25 Sep 11:18:17 11:20:58 16° 31° (NNE) 11:23:40 435.215
FUNcube-1 25 Sep 11:23:13 11:26:12 19° 297° (WNW) 11:29:14 145.935
UWE-3 25 Sep 11:28:40 11:30:00 11° 302° (WNW) 11:31:21 435.000/436.395/437.385
CUBEBUG 1 25 Sep 11:30:17 11:33:01 16° 90° (E) 11:35:45 437.445
DELFI C3 25 Sep 11:33:21 11:36:46 27° 293° (WNW) 11:40:10 145.870
UNISAT 6 25 Sep 11:38:05 11:39:45 12° 272° (W) 11:41:25 437.425
BEESAT 3 25 Sep 11:49:17 11:51:05 13° 250° (WSW) 11:52:53 437.485
QB50P1 25 Sep 11:49:36 11:53:42 52° 259° (W) 11:57:50 145.935-145.965
DUCHIFAT 1 25 Sep 11:50:48 11:54:55 57° 259° (W) 11:59:03 145.980
JAS-2 25 Sep 12:00:23 12:06:48 77° 257° (WSW) 12:14:08 435.910
POPSAT HIP 1 25 Sep 12:03:04 12:07:01 38° 262° (W) 12:10:57 437.405
BUGSAT 1 25 Sep 12:05:29 12:09:37 89° 84° (E) 12:13:43 437.445
YUBILEINY 25 Sep 12:08:42 12:13:20 15° 50° (NE) 12:17:57 435.215
AISAT 25 Sep 12:09:38 12:13:37 32° 96° (E) 12:17:33 437.250
PHONESAT 2.4 25 Sep 12:11:11 12:11:20 10° 157° (SSE) 12:11:29 2401.200-2431.200
Cosmos 2499 25 Sep 12:15:52 12:16:54 10° 310° (NW) 12:17:55 435.465 / 435.565
GONETS M04 25 Sep 12:20:16 12:24:01 13° 314° (NW) 12:27:45
50 SAT 25 Sep 12:21:03 12:24:30 37° 98° (E) 12:27:56 437.505
NANOSAT C BR1 25 Sep 12:22:02 12:25:34 26° 265° (W) 12:29:07 145.865
AUBIESAT-1 25 Sep 12:24:36 12:26:39 15° 98° (E) 12:28:41 437.475
SPROUT 25 Sep 12:24:38 12:28:11 25° 94° (E) 12:31:42 437.525
AO-7 25 Sep 12:31:35 12:35:28 14° 35° (NE) 12:39:22 29.400- 29.500
UKube-1 25 Sep 12:32:42 12:36:22 26° 95° (E) 12:40:00 .
PCSat 25 Sep 12:38:09 12:42:45 27° 40° (NE) 12:47:17 145.827
ESTCUBE 1 25 Sep 12:41:19 12:45:51 67° 288° (WNW) 12:50:21 437.505/2401.250
QB50P2 25 Sep 12:43:59 12:46:24 15° 270° (W) 12:48:50 145.880/145.840
POLYITAN 1 25 Sep 12:46:16 12:48:39 15° 270° (W) 12:51:02 437.675
Oscar 19 25 Sep 12:47:44 12:52:47 53° 70° (ENE) 12:57:52 437.125/150
HUMSAT D 25 Sep 12:51:35 12:52:42 11° 302° (WNW) 12:53:49 437.325/437.525
VELOX 1 25 Sep 12:53:16 12:57:44 84° 106° (ESE) 13:02:07 145.980
DX 1 25 Sep 12:55:12 12:59:30 57° 101° (E) 13:03:46 434.975-435.025
AIST 2 25 Sep 12:55:56 13:00:09 77° 52° (NE) 13:04:21 435.215
M-CUBED/EXP-1 PRIME 25 Sep 12:58:29 13:01:43 49° 106° (ESE) 13:04:53 437.505
CUBEBUG 1 25 Sep 13:05:24 13:09:41 56° 288° (WNW) 13:13:55 437.445
Gurwin Techsat 1B 25 Sep 13:22:05 13:27:14 53° 69° (ENE) 13:32:25 435.225
ITAMSAT 1 25 Sep 13:35:44 13:39:46 24° 61° (ENE) 13:43:50 435.822/435.867
PHONESAT 2.4 25 Sep 13:44:32 13:46:49 20° 173° (S) 13:49:07 2401.200-2431.200
AISAT 25 Sep 13:46:13 13:50:01 29° 294° (WNW) 13:53:48 437.250
JAS-2 25 Sep 13:49:46 13:53:15 15° 279° (W) 13:56:58 435.910
50 SAT 25 Sep 13:55:11 13:57:46 18° 296° (WNW) 14:00:22 437.505
TISAT 1 25 Sep 13:55:15 13:59:16 46° 99° (E) 14:03:17 437.305
AUBIESAT-1 25 Sep 13:58:15 14:01:20 34° 296° (WNW) 14:04:20 437.475
SPROUT 25 Sep 14:00:19 14:04:11 34° 292° (WNW) 14:08:02 437.525
Cosmos 2491 25 Sep 14:03:30 14:10:33 28° 80° (E) 14:17:39 435.465 / 435.565
YUBILEINY 25 Sep 14:03:44 14:12:23 61° 75° (ENE) 14:20:56 435.215
UKube-1 25 Sep 14:08:33 14:12:28 34° 293° (WNW) 14:16:20 .
AO-7 25 Sep 14:18:27 14:26:14 47° 59° (ENE) 14:34:02 29.400- 29.500
PCSat 25 Sep 14:21:13 14:26:38 69° 241° (WSW) 14:32:01 145.827
ITUPSAT 1 25 Sep 14:25:45 14:29:25 21° 92° (E) 14:33:03 437.325
Oscar 19 25 Sep 14:28:20 14:32:25 23° 268° (W) 14:36:32 437.125/150
VELOX 1 25 Sep 14:31:30 14:33:33 13° 303° (WNW) 14:35:36 145.980
DX 1 25 Sep 14:32:22 14:35:17 18° 299° (WNW) 14:38:12 434.975-435.025
M-CUBED/EXP-1 PRIME 25 Sep 14:34:22 14:35:54 13° 305° (NW) 14:37:24 437.505
AIST 2 25 Sep 14:35:56 14:38:04 14° 250° (WSW) 14:40:11 435.215
SWISSCUBE 25 Sep 14:40:01 14:44:19 32° 96° (E) 14:48:36 437.505
Cosmos 2504 25 Sep 14:49:14 14:56:13 45° 72° (ENE) 15:03:34 435.465 / 435.565
BEESAT 25 Sep 14:53:13 14:57:41 38° 97° (E) 15:02:09 436.000
Gurwin Techsat 1B 25 Sep 15:03:17 15:07:30 24° 268° (W) 15:11:45 435.225
MOZHAYETS 4 25 Sep 15:09:49 15:11:02 11° 86° (E) 15:12:14
ITAMSAT 1 25 Sep 15:13:49 15:18:53 56° 259° (W) 15:24:00 435.822/435.867
PHONESAT 2.4 25 Sep 15:20:14 15:22:26 19° 190° (S) 15:24:38 2401.200-2431.200
TISAT 1 25 Sep 15:31:38 15:34:37 19° 297° (WNW) 15:37:37 437.305
KKS-1 25 Sep 15:54:04 15:57:10 18° 92° (E) 16:00:16 437.445
Cosmos 2491 25 Sep 15:57:48 16:06:34 73° 281° (WNW) 16:15:28 435.465 / 435.565
YUBILEINY 25 Sep 16:01:11 16:08:42 34° 277° (W) 16:16:12 435.215
ITUPSAT 1 25 Sep 16:02:51 16:07:32 51° 290° (WNW) 16:12:11 437.325
PCSat 25 Sep 16:07:54 16:09:01 11° 259° (W) 16:10:07 145.827
AO-7 25 Sep 16:11:01 16:19:00 49° 259° (W) 16:27:00 29.400- 29.500
SO-50 25 Sep 16:12:48 16:17:33 60° 123° (ESE) 16:22:15 436.795
HORYU 2 25 Sep 16:15:02 16:19:00 34° 67° (ENE) 16:23:00 437.375
SWISSCUBE 25 Sep 16:17:47 16:22:07 34° 294° (WNW) 16:26:25 437.505
O/OREOS (USA 219) 25 Sep 16:19:13 16:22:55 23° 51° (NE) 16:26:35 437.305
AIST 1 25 Sep 16:23:59 16:28:13 52° 77° (ENE) 16:32:23
BEESAT 25 Sep 16:31:15 16:35:22 29° 296° (WNW) 16:39:28 436.000
STARS 25 Sep 16:35:06 16:38:38 23° 94° (E) 16:42:09 437.465
Cosmos 2504 25 Sep 16:42:50 16:49:30 40° 272° (W) 16:56:33 435.465 / 435.565
MOZHAYETS 4 25 Sep 16:44:12 16:48:53 88° 108° (ESE) 16:53:32
NOAA 15 25 Sep 16:46:49 16:51:05 25° 61° (ENE) 16:55:23 137.62
BRITE-PL 25 Sep 16:49:30 16:54:55 47° 69° (ENE) 17:00:15 437.365/2234.400
Cubesat XI-IV 25 Sep 16:53:12 16:57:19 23° 60° (ENE) 17:01:27 437.490
CUTE-I 25 Sep 16:54:12 16:58:21 24° 60° (ENE) 17:02:33 437.470
GOMX 1 25 Sep 16:54:21 16:58:42 25° 64° (ENE) 17:02:53 467.674
LilacSat-2 25 Sep 16:57:36 16:59:55 16° 63° (ENE) 17:02:16 437.200
NOAA 18 25 Sep 17:11:34 17:16:12 29° 61° (ENE) 17:20:50 137.9125
KKS-1 25 Sep 17:29:44 17:34:03 51° 290° (WNW) 17:38:19 437.445
DOVE 4 25 Sep 17:30:06 17:34:00 23° 64° (ENE) 17:37:45 437.250
HORYU 2 25 Sep 17:51:51 17:55:36 27° 265° (W) 17:59:24 437.375
SO-50 25 Sep 17:54:13 17:58:22 28° 322° (NW) 18:02:28 436.795
CUBESAT XI-V 25 Sep 17:56:31 18:01:14 70° 102° (ESE) 18:05:54 437.345
O/OREOS (USA 219) 25 Sep 17:58:08 18:02:38 52° 250° (WSW) 18:07:04 437.305
Cosmos 2491 25 Sep 17:59:29 18:05:16 19° 306° (NW) 18:11:06 435.465 / 435.565
AIST 1 25 Sep 18:02:44 18:05:22 16° 275° (W) 18:07:59
Cosmos 2499 25 Sep 18:09:16 18:13:04 14° 55° (NE) 18:16:58 435.465 / 435.565
CUSAT 1 25 Sep 18:10:02 18:14:11 18° 77° (ENE) 18:18:49 437.405
STARS 25 Sep 18:11:03 18:15:07 39° 292° (WNW) 18:19:10 437.465
HO-68 25 Sep 18:12:06 18:18:00 29° 55° (NE) 18:23:54 435.675
MOZHAYETS 4 25 Sep 18:23:08 18:25:22 14° 303° (WNW) 18:27:37
NOAA 15 25 Sep 18:25:21 18:30:33 54° 260° (W) 18:35:47 137.62
GONETS M04 25 Sep 18:25:48 18:32:47 25° 59° (ENE) 18:39:41
BRITE-PL 25 Sep 18:28:31 18:33:31 31° 267° (W) 18:38:28 437.365/2234.400
CUTE 1.7 + AOD 2 25 Sep 18:29:10 18:31:47 16° 61° (ENE) 18:34:23 437.475
CANX-2 25 Sep 18:29:30 18:32:24 18° 62° (ENE) 18:35:20 2200.000
LilacSat-2 25 Sep 18:30:15 18:33:53 47° 261° (W) 18:37:33 437.200
GOMX 1 25 Sep 18:31:11 18:36:29 53° 261° (W) 18:41:35 467.674
Cubesat XI-IV 25 Sep 18:31:47 18:37:01 59° 259° (W) 18:42:17 437.490
CUTE-I 25 Sep 18:32:50 18:38:03 57° 259° (W) 18:43:18 437.470
SEEDS 25 Sep 18:36:12 18:38:19 14° 60° (ENE) 18:40:26 437.485
NOAA 18 25 Sep 18:51:22 18:56:38 48° 260° (W) 19:01:56 137.9125
CUBEBUG 2 25 Sep 18:53:14 18:54:27 11° 58° (ENE) 18:55:41 437.445
CINEMA 3 25 Sep 19:01:08 19:05:24 43° 71° (ENE) 19:09:30 145.822/145.860
AAUSAT CUBESAT 2 25 Sep 19:06:11 19:08:37 15° 61° (ENE) 19:11:03 437.432
DOVE 4 25 Sep 19:06:30 19:11:26 51° 261° (W) 19:16:07 437.250
DANDE 25 Sep 19:14:59 19:18:42 19° 78° (ENE) 19:23:06 436.750
RS-15 25 Sep 19:15:19 19:24:45 30° 102° (ESE) 19:34:30 29.354- 29.394
UWE-3 25 Sep 19:16:14 19:18:07 13° 59° (ENE) 19:19:59 435.000/436.395/437.385
STRAND 1 25 Sep 19:32:24 19:37:05 34° 96° (E) 19:41:44 437.568
CUBESAT XI-V 25 Sep 19:35:05 19:38:05 17° 300° (WNW) 19:41:04 437.345
SO-50 25 Sep 19:39:03 19:40:25 11° 346° (NNW) 19:41:46 436.795
COMPASS 1 25 Sep 19:45:55 19:49:53 44° 71° (ENE) 19:53:53 437.405
CUSAT 1 25 Sep 19:48:41 19:54:51 87° 99° (E) 20:02:31 437.405
ZACube-1 25 Sep 19:50:29 19:53:18 18° 63° (ENE) 19:56:09 437.345
Oscar 11 25 Sep 19:53:12 19:56:20 20° 63° (ENE) 19:59:29 145.826/435.025
HO-68 25 Sep 19:58:01 20:05:11 71° 256° (WSW) 20:12:22 435.675
Cosmos 2499 25 Sep 20:00:21 20:07:44 65° 77° (ENE) 20:15:39 435.465 / 435.565
CUTE 1.7 + AOD 2 25 Sep 20:02:59 20:07:10 61° 260° (W) 20:11:23 437.475
CANX-2 25 Sep 20:03:46 20:07:54 52° 260° (W) 20:12:05 2200.000
SEEDS 25 Sep 20:09:15 20:13:27 74° 258° (WSW) 20:17:42 437.485
GONETS M04 25 Sep 20:21:57 20:30:51 86° 261° (W) 20:39:38
CUBEBUG 2 25 Sep 20:26:14 20:30:27 89° 256° (WSW) 20:34:39 437.445
PRISM 25 Sep 20:32:48 20:34:35 12° 89° (E) 20:36:22 437.425
HUMSAT D 25 Sep 20:35:10 20:36:36 12° 58° (ENE) 20:38:04 437.325/437.525
CINEMA 3 25 Sep 20:39:17 20:42:43 21° 267° (W) 20:46:03 145.822/145.860
AAUSAT CUBESAT 2 25 Sep 20:39:29 20:43:37 63° 259° (W) 20:47:47 437.432
FUNcube-1 25 Sep 20:44:34 20:48:37 57° 73° (ENE) 20:52:42 145.935
DELFI C3 25 Sep 20:47:13 20:50:35 27° 67° (ENE) 20:54:01 145.870
UWE-3 25 Sep 20:49:52 20:54:02 75° 258° (WSW) 20:58:12 435.000/436.395/437.385
DANDE 25 Sep 20:55:19 21:00:23 70° 285° (WNW) 21:07:13 436.750
STRAND 1 25 Sep 21:11:35 21:16:16 36° 294° (WNW) 21:20:56 437.568
SO-50 25 Sep 21:22:16 21:23:06 10° 11° (NNE) 21:23:55 436.795
COMPASS 1 25 Sep 21:22:40 21:25:40 19° 269° (W) 21:28:42 437.405
RS-15 25 Sep 21:23:59 21:35:44 87° 306° (NW) 21:48:07 29.354- 29.394
ZACube-1 25 Sep 21:25:16 21:29:16 49° 260° (W) 21:33:19 437.345
Oscar 11 25 Sep 21:27:59 21:32:09 48° 261° (W) 21:36:22 145.826/435.025
CUSAT 1 25 Sep 21:32:59 21:38:05 23° 304° (NW) 21:43:52 437.405
ISS 25 Sep 21:43:32 21:46:36 39° 145° (SE) 21:49:41 145.825
UNISAT 6 25 Sep 21:48:20 21:50:05 12° 88° (E) 21:51:52 437.425
HO-68 25 Sep 21:50:49 21:54:11 14° 276° (W) 21:57:33 435.675
AO-85 25 Sep 21:53:14 21:58:19 57° 122° (ESE) 22:03:04 145.980
Cosmos 2499 25 Sep 21:54:18 22:00:20 28° 277° (W) 22:06:43 435.465 / 435.565
PRISM 25 Sep 22:06:13 22:10:22 68° 287° (WNW) 22:14:27 437.425
HUMSAT D 25 Sep 22:07:32 22:11:36 83° 257° (WSW) 22:15:44 437.325/437.525
ESTCUBE 1 25 Sep 22:08:15 22:11:39 21° 62° (ENE) 22:15:03 437.505/2401.250
M-CUBED/EXP-1 PRIME 25 Sep 22:14:48 22:17:05 15° 57° (ENE) 22:19:17 437.505
VELOX 1 25 Sep 22:19:20 22:21:49 15° 59° (ENE) 22:24:17 145.980
GONETS M04 25 Sep 22:20:27 22:26:20 20° 285° (WNW) 22:32:12
DX 1 25 Sep 22:21:46 22:22:20 10° 55° (NE) 22:22:54 434.975-435.025
DELFI C3 25 Sep 22:21:52 22:25:23 29° 265° (W) 22:28:55 145.870
ANTELSAT 25 Sep 22:22:18 22:26:00 26° 95° (E) 22:29:45 437.575/2403.000
FUNcube-1 25 Sep 22:22:58 22:25:16 14° 270° (W) 22:27:34 145.935
CUBEBUG 1 25 Sep 22:29:01 22:32:22 22° 63° (ENE) 22:35:44 437.445
DANDE 25 Sep 22:41:46 22:44:58 15° 311° (NW) 22:48:33 436.750
TIGRISAT 25 Sep 22:43:16 22:47:23 40° 98° (E) 22:51:34 435.000
50 SAT 25 Sep 23:00:50 23:03:55 27° 68° (ENE) 23:07:05 437.505
SO-50 25 Sep 23:01:24 23:05:14 25° 35° (NE) 23:08:59 436.795
JAS-2 25 Sep 23:07:25 23:12:36 19° 84° (E) 23:17:39 435.910
AISAT 25 Sep 23:09:40 23:13:53 43° 69° (ENE) 23:18:06 437.250
AUBIESAT-1 25 Sep 23:12:10 23:16:01 42° 65° (ENE) 23:19:37 437.475
ISS 25 Sep 23:19:51 23:23:04 51° 344° (NNW) 23:26:17 145.825
SPROUT 25 Sep 23:21:02 23:24:43 29° 67° (ENE) 23:28:26 437.525
UNISAT 6 25 Sep 23:22:58 23:27:20 77° 284° (WNW) 23:31:46 437.425
UKube-1 25 Sep 23:29:58 23:33:53 34° 67° (ENE) 23:37:48 .
QB50P1 25 Sep 23:31:40 23:34:46 20° 92° (E) 23:37:51 145.935-145.965
DUCHIFAT 1 25 Sep 23:32:28 23:35:19 18° 91° (E) 23:38:09 145.980
AO-85 25 Sep 23:34:38 23:39:03 29° 320° (NW) 23:43:12 145.980
RS-15 25 Sep 23:38:54 23:50:03 42° 336° (NNW) 00:01:36 29.354- 29.394
ESTCUBE 1 25 Sep 23:43:43 23:48:07 50° 260° (W) 23:52:34 437.505/2401.250
POPSAT HIP 1 25 Sep 23:44:37 23:48:10 26° 95° (E) 23:51:42 437.405
M-CUBED/EXP-1 PRIME 25 Sep 23:47:05 23:51:16 66° 253° (WSW) 23:55:07 437.505
VELOX 1 25 Sep 23:53:15 23:57:43 75° 257° (WSW) 00:02:11 145.980
DX 1 25 Sep 23:53:22 23:57:44 74° 73° (ENE) 00:02:08 434.975-435.025
ANTELSAT 25 Sep 23:58:48 00:02:47 35° 292° (WNW) 00:06:49 437.575/2403.000
NANOSAT C BR1 26 Sep 00:02:25 00:06:21 37° 98° (E) 00:10:15 145.865
CUBEBUG 1 26 Sep 00:04:06 00:08:22 46° 261° (W) 00:12:39 437.445
Cosmos 2491 26 Sep 00:08:42 00:14:18 18° 53° (NE) 00:19:50 435.465 / 435.565
TIGRISAT 26 Sep 00:20:24 00:23:54 24° 295° (WNW) 00:27:26 435.000
QB50P2 26 Sep 00:23:20 00:27:34 72° 103° (ESE) 00:31:47 145.880/145.840
POLYITAN 1 26 Sep 00:25:34 00:29:48 72° 102° (ESE) 00:34:00 437.675
50 SAT 26 Sep 00:34:27 00:37:26 24° 265° (W) 00:40:27 437.505
SO-50 26 Sep 00:41:33 00:46:08 65° 236° (SW) 00:50:34 436.795
AISAT 26 Sep 00:47:03 00:50:32 22° 267° (W) 00:54:02 437.250
AUBIESAT-1 26 Sep 00:47:40 00:50:37 19° 260° (W) 00:53:25 437.475
TISAT 1 26 Sep 00:49:34 00:53:39 52° 71° (ENE) 00:57:44 437.305
JAS-2 26 Sep 00:50:48 00:58:44 80° 103° (ESE) 01:06:26 435.910
ISS 26 Sep 00:56:51 00:59:56 37° 4° (N) 01:03:03 145.825
SPROUT 26 Sep 00:56:51 01:00:37 30° 264° (W) 01:04:24 437.525
Oscar 19 26 Sep 00:57:34 01:00:19 14° 88° (E) 01:03:04 437.125/150
UNISAT 6 26 Sep 01:02:33 01:03:19 10° 303° (WNW) 01:04:06 437.425
UKube-1 26 Sep 01:06:17 01:09:57 27° 265° (W) 01:13:40 .
QB50P1 26 Sep 01:06:45 01:10:45 43° 290° (WNW) 01:14:44 145.935-145.965
DUCHIFAT 1 26 Sep 01:07:14 01:11:17 48° 289° (WNW) 01:15:18 145.980
YUBILEINY 26 Sep 01:18:27 01:21:53 13° 70° (ENE) 01:25:19 435.215
BUGSAT 1 26 Sep 01:19:20 01:23:22 82° 285° (WNW) 01:27:23 437.445
AO-85 26 Sep 01:19:49 01:20:58 11° 343° (NNW) 01:22:06 145.980
POPSAT HIP 1 26 Sep 01:20:14 01:23:59 33° 292° (WNW) 01:27:45 437.405
DX 1 26 Sep 01:32:30 01:34:26 13° 271° (W) 01:36:24 434.975-435.025
ITUPSAT 1 26 Sep 01:35:15 01:39:34 35° 66° (ENE) 01:43:54 437.325
Gurwin Techsat 1B 26 Sep 01:36:10 01:39:27 16° 89° (E) 01:42:44 435.225
NANOSAT C BR1 26 Sep 01:38:33 01:41:53 23° 295° (WNW) 01:45:13 145.865
BEESAT 3 26 Sep 01:40:24 01:44:07 45° 121° (ESE) 01:47:54 437.485
SWISSCUBE 26 Sep 01:49:16 01:53:53 52° 70° (ENE) 01:58:32 437.505
RS-15 26 Sep 01:55:43 02:06:41 36° 10° (N) 02:17:45 29.354- 29.394
QB50P2 26 Sep 02:00:38 02:02:51 14° 300° (WNW) 02:05:02 145.880/145.840
BEESAT 26 Sep 02:02:27 02:07:08 63° 72° (ENE) 02:11:52 436.000
POLYITAN 1 26 Sep 02:02:53 02:05:04 14° 300° (WNW) 02:07:15 437.675
Cosmos 2491 26 Sep 02:04:14 02:13:06 69° 77° (ENE) 02:21:54 435.465 / 435.565
MOZHAYETS 4 26 Sep 02:14:00 02:16:50 16° 60° (ENE) 02:19:42
TISAT 1 26 Sep 02:26:56 02:29:36 16° 269° (W) 02:32:17 437.305
BEESAT 2 26 Sep 02:30:51 02:34:48 76° 126° (SE) 02:38:48 435.950
ISS 26 Sep 02:33:25 02:36:43 82° 27° (NNE) 02:40:01 145.825
Oscar 19 26 Sep 02:35:07 02:40:19 83° 286° (WNW) 02:45:27 437.125/150
JAS-2 26 Sep 02:36:35 02:42:58 29° 304° (WNW) 02:49:19 435.910
KKS-1 26 Sep 02:54:53 02:58:34 26° 64° (ENE) 03:02:16 437.445
YUBILEINY 26 Sep 03:08:10 03:16:46 62° 92° (E) 03:25:21 435.215
ITUPSAT 1 26 Sep 03:13:13 03:17:25 31° 264° (W) 03:21:39 437.325
Gurwin Techsat 1B 26 Sep 03:14:41 03:20:01 77° 287° (WNW) 03:25:20 435.225
BEESAT 3 26 Sep 03:18:40 03:21:58 25° 320° (NW) 03:25:17 437.485
ITAMSAT 1 26 Sep 03:23:18 03:28:14 40° 98° (E) 03:33:08 435.822/435.867
CUBESAT XI-V 26 Sep 03:28:06 03:30:31 14° 58° (ENE) 03:32:56 437.345
SWISSCUBE 26 Sep 03:28:27 03:31:59 20° 268° (W) 03:35:33 437.505
Cosmos 2504 26 Sep 03:32:30 03:38:52 33° 85° (E) 03:45:04 435.465 / 435.565
STARS 26 Sep 03:34:31 03:38:23 32° 67° (ENE) 03:42:16 437.465
BEESAT 26 Sep 03:42:14 03:45:21 17° 270° (W) 03:48:28 436.000
MOZHAYETS 4 26 Sep 03:48:56 03:53:29 69° 259° (WSW) 03:58:05
Cosmos 2491 26 Sep 04:01:56 04:09:14 30° 279° (W) 04:16:30 435.465 / 435.565
BEESAT 2 26 Sep 04:10:14 04:13:06 19° 325° (NW) 04:15:59 435.950
ISS 26 Sep 04:10:26 04:12:53 19° 222° (SW) 04:15:20 145.825
